Sacramento International, CA

12:11 AM PDT on April 24, 2018 (GMT -0700)
Sacramento International

Weather History for KSMF - September, 2013

Change the Weather History Date:

Saturday, September 21, 2013

  Actual Average Record
Temperature  
Mean Temperature 62 °F -  
Max Temperature 68 °F 87 °F 100 °F (1949)
Min Temperature 55 °F 54 °F 46 °F (1960)
Degree Days  
Heating Degree Days 4    
Growing Degree Days 12 (Base 50)    
Moisture  
Dew Point 58 °F    
Average Humidity 86    
Maximum Humidity 100    
Minimum Humidity 68    
Precipitation  
Precipitation 0.53 in - - ()
Sea Level Pressure  
Sea Level Pressure 29.81 in    
Wind  
Wind Speed 11 mph (South)    
Max Wind Speed 17 mph    
Max Gust Speed 20 mph    
Visibility 9 miles    
Events Rain    
Averages and records for this station are not official NWS values.
T = Trace of Precipitation, MM = Missing Value Source: NWS Daily Summary

Daily Weather History Graph

Daily Weather History Graph

Search for Another Location

Airport or City:

Astronomy

Sep. 21, 2013 Rise Set
Actual Time 6:53 AM PDT 7:04 PM PDT
Civil Twilight 6:26 AM PDT 7:30 PM PDT
Nautical Twilight 5:55 AM PDT 8:01 PM PDT
Astronomical Twilight 5:24 AM PDT 8:33 PM PDT
Moon 8:20 PM PDT (9/21) 9:15 AM PDT (9/21)
Length of Visible Light 13h 03m
Length of Day
12h 10m
Waning Gibbous, 94% of the Moon is Illuminated
Sep 21
Waning Gibbous
Sep 26
Last Quarter
Oct 4
New
Oct 11
First Quarter
Oct 18
Full

Hourly Weather History & Observations

Time (PDT) Temp. Dew Point Humidity Pressure Visibility Wind Dir Wind Speed Gust Speed Precip Events Conditions
12:53 AM 64.0 °F 59.0 °F 84% 29.82 in 10.0 mi South 8.1 mph - N/A   Scattered Clouds
1:53 AM 64.9 °F 59.0 °F 81% 29.81 in 10.0 mi South 13.8 mph - N/A   Mostly Cloudy
2:53 AM 64.0 °F 60.1 °F 87% 29.81 in 10.0 mi South 6.9 mph - N/A   Mostly Cloudy
3:53 AM 64.9 °F 57.9 °F 78% 29.80 in 10.0 mi South 9.2 mph - N/A   Overcast
4:53 AM 66.0 °F 57.9 °F 75% 29.79 in 10.0 mi South 9.2 mph - N/A   Overcast
5:53 AM 64.9 °F 57.9 °F 78% 29.78 in 10.0 mi South 10.4 mph - N/A   Mostly Cloudy
6:00 AM 64.4 °F 57.2 °F 77% 29.78 in 10.0 mi South 10.4 mph - N/A   Mostly Cloudy
6:10 AM 64.4 °F 57.2 °F 77% 29.78 in 10.0 mi South 11.5 mph - N/A   Scattered Clouds
6:53 AM 64.0 °F 57.9 °F 80% 29.79 in 10.0 mi SSW 16.1 mph 19.6 mph N/A   Mostly Cloudy
7:25 AM 64.4 °F 57.2 °F 77% 29.79 in 10.0 mi South 12.7 mph - N/A   Overcast
7:53 AM 64.0 °F 59.0 °F 84% 29.80 in 10.0 mi South 13.8 mph - N/A   Overcast
8:53 AM 64.0 °F 57.9 °F 80% 29.80 in 10.0 mi South 13.8 mph - N/A   Overcast
9:53 AM 66.0 °F 57.0 °F 73% 29.81 in 10.0 mi SSW 13.8 mph - N/A   Overcast
10:53 AM 66.9 °F 55.9 °F 68% 29.81 in 10.0 mi SSW 17.3 mph - N/A   Overcast
11:53 AM 62.1 °F 60.1 °F 93% 29.82 in 4.0 mi SW 11.5 mph - 0.04 in Rain Light Rain
12:53 PM 62.1 °F 60.1 °F 93% 29.84 in 2.5 mi South 10.4 mph - 0.23 in Rain Rain
1:34 PM 60.8 °F 60.8 °F 100% 29.83 in 3.0 mi SSW 16.1 mph - 0.17 in Rain Rain
1:53 PM 61.0 °F 60.1 °F 97% 29.83 in 4.0 mi South 11.5 mph - 0.21 in Rain Light Rain
2:53 PM 61.0 °F 59.0 °F 93% 29.82 in 10.0 mi South 10.4 mph - 0.04 in Rain Light Rain
3:53 PM 61.0 °F 57.9 °F 90% 29.81 in 10.0 mi South 10.4 mph - 0.00 in Rain Light Rain
4:53 PM 62.1 °F 57.0 °F 84% 29.80 in 10.0 mi SSE 11.5 mph - 0.00 in   Mostly Cloudy
5:53 PM 62.1 °F 57.9 °F 86% 29.80 in 10.0 mi SE 10.4 mph - 0.01 in Rain Light Rain
6:53 PM 61.0 °F 59.0 °F 93% 29.80 in 10.0 mi SE 10.4 mph - 0.00 in   Mostly Cloudy
7:53 PM 60.1 °F 59.0 °F 96% 29.81 in 10.0 mi SE 11.5 mph - N/A   Scattered Clouds
8:53 PM 59.0 °F 57.9 °F 96% 29.83 in 10.0 mi SE 10.4 mph - N/A   Scattered Clouds
9:53 PM 57.9 °F 57.0 °F 97% 29.85 in 10.0 mi South 8.1 mph - N/A   Scattered Clouds
10:53 PM 57.0 °F 55.0 °F 93% 29.86 in 10.0 mi WNW 3.5 mph - N/A   Partly Cloudy
11:53 PM 55.9 °F 55.0 °F 97% 29.88 in 10.0 mi NW 12.7 mph - N/A   Mostly Cloudy